Погода в Акнаде

Россия / Республика Дагестан     43°22′43″N   46°54′33″E
темп.,
°C
ветер,
м/с
пор.,
м/с
влажн.,
%
обл.,
%
осадки,
мм/ч
давл.,
гПа
погр.,
м
12 апреля, пн
пн1200:00+9вюв1177100 0.0 101610
03:00+9ююз1177100 0.0 101610
06:00+9зсз228198 0.0 101739
09:00+15зсз4563100 0.0 1019608
12:00+17сз3355100 0.0 1019895
15:00+18св3255100 0.0 1019921
18:00+13в347686 0.1 102083
21:00+11вюв228675 0.9 102128
13 апреля, вт
вт1300:00+12св118245 0.0 102111
03:00+10сз11880 0.0 102210
06:00+10св1189100 0.0 102211
09:00+15юв2369100 0.0 1022467
12:00+20вюв71042100 0.0 1020959
15:00+17вюв812451 0.0 1019624
18:00+12в511655 0.0 1019296
21:00+9вюв357491 0.0 101994
14 апреля, ср
ср1400:00+9ю227392 0.0 101821
03:00+8з3387100 0.0 101646
06:00+9зсз249356 0.0 101599
09:00+15зсз5671100 0.0 1016633
12:00+17сз1157100 0.2 10151145
15:00+17з4459100 0.2 1015753
18:00+15з587097 0.0 1015331
21:00+11зсз387392 0.0 1017149
15 апреля, чт
чт1500:00+10з5117990 0.0 1016227
03:00+11з5117798 0.0 1016244
06:00+11зсз4107867 0.0 1016280
09:00+16зсз68575 0.0 1016654
12:00+21зсз44430 0.0 10151218
15:00+22зсз22370 0.0 10141762
18:00+18с11510 0.0 101413
21:00+12ююв33685 0.0 101540
16 апреля, пт
пт1600:00+12ююв1164100 0.0 101410
03:00+12юз016549 0.0 101310
06:00+12з116692 0.0 101410
09:00+18зсз334892 0.0 1015426
12:00+22сз2338100 0.0 10141689
15:00+23зсз233635 0.0 10132154
18:00+19в465299 0.0 1014107
21:00+16зсз81164100 0.1 1016540